星链-31657 (STARLINK-31657 )

导读

STARLINK-31657是美国太空探索技术公司SpaceX星链计划中的一颗卫星,于北京时间2024年4月13日8时发射入轨。星链计划旨在构建全球卫星互联网星座,为全球各地提供高速低延迟的宽带网络服务,该卫星的成功发射进一步扩充了星链星座的卫星规模,推进了星座组网进程。

Basic Information
目录编号:
59487
目录名称:
STARLINK-31657
国际标识:
2024-071D
轨道中心:
EARTH
卫星名称:
星链-31657
卫星全名:
星链-31657 (STARLINK-31657 )
卫星状态:
在轨 (已飞行881 天)
发射日期:
2024-04-13 UTC
国别 :
美国 (US)
星等 :
--
This satellite is enrolled in the Space Conjunction Data Service (SCDS) and the current flight risk assessment level is: No High Risk
Orbit Information
数据来源 国际轨道数据
星历时间: 2026-09-11T15:14:43+0800
11小时前
查看轨道信息
半长轴: 6861.21km
偏心率: 0.0001197
轨道倾角: 43.002°
近地点辐角 274.255°
升交点赤经 11.414°
平近点角 85.816°
近地点: 482.251km
远地点: 483.895km
周期: 94.267分钟
每日圈数: 15.275723
Detailed Information
固有亮度:
5
最大亮度:
1.5
卫星平台:
Starlink v2.0 mini
覆盖范围:
全球
运营商:
太空探索技术公司
运营商所在国:
美国
制造商(研发单位):
太空探索技术公司
制造商所在国:
美国
使用方式:
暂无
Satellite Introduction
星链(Starlink)计划是由太空探索技术公司(SpaceX)提出的一个巨型低轨卫星互联网星座项目,计划在2019年至2024年间在太空搭建由约1.2万颗卫星组成的“星链”网络,其中1584颗将部署在地球上空550千米处的近地轨道,并从2020年开始工作。该卫星仍在工作。
2D Orbit Map
3D Orbit Map
Orbit Altitude Analysis Chart
Orbit Inclination Analysis Chart
Orbit Comprehensive Analysis Chart
View Comprehensive Chart
Conjunction Data List
Event ID Objects TCA Miss Dist (km) Collision Risk Probability Collision Risk Index (CRI) Action
CDM_260914-083905-948706-312221
2026-09-14T
08:39:44+0000
0.426 km
远距离
1.196433E-4 高风险 0.77
CDM_260913-235105-948706-782521
2026-09-13T
23:51:13+0000
0.707 km
远距离
4.633958E-5 中风险 0.68
CDM_260913-142305-948706-792121
2026-09-13T
14:23:44+0000
1.008 km
极远距离
1.652856E-5 中风险 0.59
CDM_260914-082905-948706-782521
2026-09-14T
08:29:04+0000
1.131 km
极远距离
9.59922E-6 低风险 0.55
CDM_260913-155705-948706-792121
2026-09-13T
15:57:53+0000
1.334 km
极远距离
6.286977E-6 低风险 0.51
CDM_260914-065205-948706-792121
2026-09-14T
06:52:21+0000
1.413 km
极远距离
5.200166E-6 低风险 0.49
CDM_260914-012505-948706-782521
2026-09-14T
01:25:22+0000
1.856 km
极远距离
2.009164E-6 低风险 0.41
CDM_260914-082605-948706-792121
2026-09-14T
08:26:31+0000
1.978 km
极远距离
1.941173E-6 低风险 0.41
CDM_260913-124905-948706-792121
2026-09-13T
12:49:35+0000
2.375 km
极远距离
1.303099E-6 低风险 0.37
CDM_260914-051805-948706-792121
2026-09-14T
05:18:12+0000
2.784 km
极远距离
1.009066E-6 低风险 0.35
Miss Distance Evolution Trend with All Objects
Collision Probability Evolution Trend with All Objects